Overview Statistics Trail Chart Weather Telemetry Raw packets
 

This is the latest recevied weather packets stored in our database for station/object WW6Q. If no packets are shown the sender has not sent any weather packets the latest 10 day(s).

<< 83 84 85 86 87 88 89 >>
Time Temp. Humidity Pressure Rain* Wind** Luminosity Snow
1788017806 24.44° C 66% 1022.3 hPa 0 mm - 515 W/m² -
1788017502 24.44° C 66% 1022.2 hPa 0 mm - 537 W/m² -
1788017199 24.44° C 66% 1022.4 hPa 0 mm - 536 W/m² -
1788016898 24.44° C 63% 1021.9 hPa 0 mm - 503 W/m² -
1788016597 24.44° C 63% 1022.2 hPa 0 mm - 549 W/m² -
1788016292 24.44° C 66% 1022.1 hPa 0 mm - 521 W/m² -
1788015991 23.89° C 66% 1022.1 hPa 0 mm - 495 W/m² -
1788015686 23.89° C 67% 1022.1 hPa 0 mm - 491 W/m² -
1788015386 23.33° C 67% 1022.2 hPa 0 mm - 473 W/m² -
1788015080 23.33° C 70% 1022.4 hPa 0 mm - 496 W/m² -
1788014779 22.78° C 68% 1022.4 hPa 0 mm - 479 W/m² -
1788014474 22.78° C 70% 1022.2 hPa 0 mm - 375 W/m² -
1788014175 22.78° C 70% 1022.3 hPa 0 mm - 442 W/m² -
1788013869 22.78° C 71% 1022.4 hPa 0 mm - 461 W/m² -
1788013568 22.22° C 75% 1022.3 hPa 0 mm - 399 W/m² -
1788013268 21.67° C 71% 1022.4 hPa 0 mm - 355 W/m² -
1788012962 22.22° C 70% 1022.4 hPa 0 mm - 349 W/m² -
1788012662 22.22° C 73% 1022 hPa 0 mm - 263 W/m² -
1788012356 21.67° C 72% 1022.1 hPa 0 mm - 269 W/m² -
1788012052 21.67° C 76% 1021.8 hPa 0 mm - 76 W/m² -
1788011750 21.11° C 75% 1022 hPa 0 mm - 67 W/m² -
1788011446 20.56° C 76% 1021.8 hPa 0 mm - 62 W/m² -
1788011145 20.56° C 77% 1021.7 hPa 0 mm - 182 W/m² -
1788010840 20° C 79% 1021.8 hPa 0 mm - 61 W/m² -
1788010539 20° C 77% 1021.8 hPa 0 mm - 62 W/m² -

* Rain latest hour (hover to see other rain measurements)
** Current wind speed in m/s (hover to see current wind gust speed)